Content
SEND FEEDBACK

Daily
Averages
Monthly
Summary
United Kingdom

LONDON, ENGLAND


Home > Europe > United Kingdom > England
Elevation: 203 feet     Latitude: 51 09N     Longitude: 000 11W

WEATHER
 
SELECT A DAY
Number of Records: 293,844;   Date Range: 7/1/96 - 8/28/14
 
SHARE

PRINT THIS DATA

[ ← Previous Day ]
WEATHER ALMANAC - APRIL 17, 2013
[ Next Day → ]
[ °C ]   °F
Weather ElementAverageHighLow
Temperature54.7 °F64.4 °F (4:50 pm)48.2 °F (2:50 am)
Dewpoint48.8 °F51.8 °F (9:20 am)44.6 °F (11:20 pm)
Humidity82 %100 % (3:20 am)56 % (4:50 pm)
Barometer29.97 in30.09 in (12:50 am)29.80 in (10:20 pm)
Wind Speed10.7 mph21.9 mph (11:50 pm)
Wind Gust34.5 mph (11:50 pm)
Weather ElementAverage
Visibility4.2 mi
Wind DirectionSSW (194.7 °)

Weather ElementTotal
Precipitation---
Heating Degree Days8.7 (Base 65)
Growing Degree Days6.3 (Base 50)
Averaged from 45 records on April 17, 2013
WEATHER CONDITIONS BREAKOUT
WIND DIRECTION BREAKOUT
WEATHER BY HOUR - APRIL 17, 2013
[ °C ]   °F
Local TimeTemperatureDewpointHumidityBarometerVisibilityWind DirectionWind SpeedGust SpeedPrecipitationEventsConditions
12:50 AM50.0 °F46.4 °F87 %30.09 in4.3 miSSW (200°)5.8 mphMostly Cloudy
1:20 AM50.0 °F46.4 °F87 %30.09 in6.2 miSouth (170°)5.8 mphMostly Cloudy
1:50 AM50.0 °F46.4 °F87 %30.09 in6.2 miSouth (170°)4.6 mphMostly Cloudy
2:20 AM50.0 °F46.4 °F87 %30.09 in6.2 miSouth (170°)4.6 mphMostly Cloudy
2:50 AM48.2 °F46.4 °F93 %30.06 in2.5 miSouth (170°)4.6 mphHaze
3:20 AM48.2 °F48.2 °F100 %30.06 in1.6 miSSE (160°)4.6 mphLight Drizzle
3:50 AM48.2 °F48.2 °F100 %30.06 in0.9 miSSE (150°)5.8 mphLight Drizzle
4:20 AM48.2 °F48.2 °F100 %30.06 in0.9 miSSE (160°)6.9 mphLight Drizzle
4:50 AM48.2 °F48.2 °F100 %30.06 in1.0 miSouth (180°)4.6 mphLight Drizzle
5:20 AM50.0 °F48.2 °F94 %30.06 in0.9 miSSE (160°)5.8 mphDrizzle
5:50 AM50.0 °F50.0 °F100 %30.06 in1.5 miSouth (170°)3.5 mphLight Drizzle
6:20 AM50.0 °F50.0 °F100 %30.06 in1.4 miSouth (180°)5.8 mphRainLight Rain
6:50 AM51.8 °F50.0 °F94 %30.04 in1.4 miSouth (190°)6.9 mphDrizzle
7:20 AM51.8 °F50.0 °F94 %30.04 in1.4 miSouth (190°)8.1 mphDrizzle
7:50 AM51.8 °F50.0 °F94 %30.04 in1.4 miSSW (200°)10.4 mphLight Drizzle
8:20 AM51.8 °F50.0 °F94 %30.04 in1.2 miSSW (200°)11.5 mphMostly Cloudy
8:50 AM51.8 °F50.0 °F94 %30.04 in0.9 miSSW (200°)9.2 mphMostly Cloudy
9:20 AM51.8 °F51.8 °F100 %30.04 in1.2 miSouth (190°)8.1 mphMostly Cloudy
9:50 AM51.8 °F51.8 °F100 %30.04 in3.7 miSSW (200°)8.1 mphMostly Cloudy
10:20 AM53.6 °F50.0 °F88 %30.04 in5.6 miSouth (190°)8.1 mphMostly Cloudy
10:50 AM53.6 °F50.0 °F88 %30.04 in6.2 miSouth (190°)8.1 mphMostly Cloudy
11:20 AM53.6 °F51.8 °F94 %30.01 in6.2 miSSW (200°)8.1 mphMostly Cloudy
11:50 AM55.4 °F50.0 °F82 %30.01 in6.2 miSSW (200°)10.4 mphMostly Cloudy
12:20 PM55.4 °F50.0 °F82 %30.01 in6.2 miSouth (190°)9.2 mphMostly Cloudy
12:50 PM55.4 °F50.0 °F82 %29.98 in6.2 miSouth (190°)11.5 mphMostly Cloudy
1:20 PM55.4 °F51.8 °F88 %29.98 in6.2 miSSW (200°)13.8 mphMostly Cloudy
1:50 PM57.2 °F50.0 °F77 %29.98 in6.2 miSSW (200°)15.0 mphPartly Cloudy
2:50 PM59.0 °F48.2 °F67 %29.95 in6.2 miSSW (210°)16.1 mphPartly Cloudy
3:20 PM60.8 °F48.2 °F63 %29.92 in6.2 miSSW (200°)16.1 mphPartly Cloudy
3:50 PM60.8 °F48.2 °F63 %29.92 inSouth (190°)15.0 mphClear
4:20 PM60.8 °F48.2 °F63 %29.89 inSouth (190°)16.1 mph27.6 mphClear
4:50 PM64.4 °F48.2 °F56 %29.89 inSSW (200°)15.0 mph27.6 mphClear
5:20 PM64.4 °F48.2 °F56 %29.89 inSSW (210°)12.7 mphClear
5:50 PM64.4 °F48.2 °F56 %29.86 inSouth (190°)9.2 mphClear
6:20 PM64.4 °F50.0 °F59 %29.83 inSouth (180°)11.5 mphClear
6:50 PM62.6 °F48.2 °F59 %29.83 inSouth (180°)11.5 mphClear
7:20 PM60.8 °F50.0 °F68 %29.83 in6.2 miSouth (180°)10.4 mphPartly Cloudy
7:50 PM60.8 °F50.0 °F68 %29.83 in6.2 miSSW (210°)11.5 mphPartly Cloudy
8:20 PM59.0 °F48.2 °F67 %29.83 in6.2 miSW (230°)15.0 mphPartly Cloudy
8:50 PM57.2 °F48.2 °F72 %29.83 in6.2 miSW (230°)13.8 mphScattered Clouds
9:50 PM55.4 °F50.0 °F82 %29.83 in6.2 miWSW (240°)17.3 mphMostly Cloudy
10:20 PM55.4 °F48.2 °F77 %29.80 in6.2 miWSW (240°)19.6 mphMostly Cloudy
10:50 PM53.6 °F46.4 °F77 %29.83 in5.6 miSW (230°)18.4 mphOvercast
11:20 PM51.8 °F44.6 °F76 %29.83 in6.2 miWSW (240°)20.7 mph32.2 mphMostly Cloudy
11:50 PM51.8 °F44.6 °F76 %29.83 in5.0 miWSW (240°)21.9 mph34.5 mphOvercast
Hourly data recorded from EGKK, located miles away from London, England







STORIES FROM OUR PARTNERS